Retour au catalogue

DELTA 1 DEB

ActifSSO
NORAD 21471·DEBRIS·🇺🇸 United States

Lancé Jun 12, 1975 depuis Vandenberg Space Force Base

Loading…

Prochains Passages (prochaines 24 heures)

TLE

FraisSource: Space-Track

Époque: Sep 14, 2026, 10:03 UTC

1 21471U 75052FF  26257.41909193  .00000304  00000-0  39602-3 0  9992
2 21471  99.9646  55.5409 0249231 128.1226 261.2305 13.57751167748563

Suivez DELTA 1 DEB en temps réel avec AllMySat

Download on the App Store